Location: Boursonne
(49.2024°N, 3.0468°E)
Time: 09:57:54
(UTC+00:00)

Cosmos 2242 Rocket - Pass Details

Date: 03 March 2021
Orbit: 617 x 652 km, 82.5° (Epoch: 10 April)

Event Time Altitude Azimuth Distance (km) Brightness Sun altitude
Rises 19:04:43 0° 349° (N) 2,963 7.3 -15.5°
Reaches altitude 10° 19:07:00 10° 350° (N) 2,043 6.4 -15.9°
Maximum altitude 19:11:32 88° 269° (W) 642 3.6 -16.6°
Drops below altitude 10° 19:15:59 10° 173° (S) 2,004 6.0 -17.3°
Sets 19:18:12 0° 173° (S) 2,901 6.8 -17.7°
